Location: Bonny Doon Airfield
(37.0704°N, 122.1252°W)
Time: 00:08:50
(UTC-08:00)

Vanguard 2 - Pass Details

Date: 12 December 2017
Orbit: 553 x 2939 km, 32.9° (Epoch: 21 January)

Event Time Altitude Azimuth Distance (km) Brightness Sun altitude
Rises 16:51:55 0° 253° (WSW) 4,009 13.4 -0.8°
Reaches altitude 10° 16:55:17 10° 249° (WSW) 2,701 12.4 -1.4°
Maximum altitude 17:01:05 49° 175° (S) 910 8.2 -2.4°
Drops below altitude 10° 17:05:12 10° 100° (E) 1,926 9.1 -3.2°
Enters shadow 17:07:13 - 94° (E) 2,737 9.8 -3.5°
Sets 17:07:15 0° 94° (E) 2,749 - -3.5°
